Regional Weather Roundup
Issued by NWS

Home | Current Version | Previous Version | Graphics & Text | Print | Product List | Glossary On
Versions: 1 2 3 4 5 6 7 8 9 10 11 12 13 14 15 16 17 18 19 20 21 22 23 24 25 26 27 28 29 30 31 32 33 34 35 36 37 38 39 40 41 42 43 44 45 46 47 48 49 50
179
ASUS43 KFSD 271910
RWRSD

WEATHER ROUNDUP FOR SOUTH DAKOTA
NATIONAL WEATHER SERVICE SIOUX FALLS SD
200 PM CDT SAT AUG 27 2016

NOTE: "FAIR" INDICATES FEW OR NO CLOUDS BELOW 12,000 FEET WITH NO
SIGNIFICANT WEATHER AND/OR OBSTRUCTIONS TO VISIBILITY.


SDZ001>005-009-010-012>017-272000-
NORTHWEST AND NORTH CENTRAL SOUTH DAKOTA

CITY           SKY/WX    TMP DP  RH WIND       PRES   REMARKS
BUFFALO          N/A     75  52  44 S9        29.87F
FAITH            N/A     78  49  35 S7        29.92F
MOBRIDGE       SUNNY     78  54  43 SW8       29.90F
$$

SDZ012>016-024>037-041>051-057-063-072>074-272000-
SOUTHWEST AND SOUTH CENTRAL SOUTH DAKOTA

CITY           SKY/WX    TMP DP  RH WIND       PRES   REMARKS
RAPID CTY ARPT SUNNY     76  55  48 S15       29.94F
PIERRE         SUNNY     77  53  43 CALM      29.93S
CUSTER         SUNNY     71  45  39 W13G18    30.06F
ELLSWORTH AFB  SUNNY     77  54  44 S12       29.93F
PHILIP         SUNNY     77  56  48 S7        29.93F
PINE RIDGE     SUNNY     77  56  48 W7        29.97F
WINNER         FAIR      84  53  34 VRB7      29.95F
$$

SDZ004>011-016>023-039-040-272000-
NORTHEAST SOUTH DAKOTA

CITY           SKY/WX    TMP DP  RH WIND       PRES   REMARKS
ABERDEEN       PTSUNNY   74  61  63 S12G21    29.94F
WATERTOWN      SUNNY     72  58  61 S9        29.98S
BROOKINGS      CLOUDY    67  60  78 S8        29.99S
SISSETON         N/A     74  60  61 S15G21    29.93F
$$

SDZ017-020-022-023-036>040-048>070-272000-
SOUTHEAST SOUTH DAKOTA

CITY           SKY/WX    TMP DP  RH WIND       PRES   REMARKS
SIOUX FALLS    PTSUNNY   71  62  73 SW8       30.00S
HURON          MOSUNNY   75  62  64 S10       29.95F
CHAMBERLAIN    SUNNY     81  57  43 CALM      29.95S
MITCHELL       SUNNY     77  62  59 S9        29.96F
YANKTON        SUNNY     77  61  57 SE9       29.97S
$$

ABBREVIATIONS USED IN REMARKS
   TC - TEMPERATURE IN CELSIUS
  WCI - WIND CHILL INDEX
   HX - HEAT INDEX
  VSB - VISIBILITY





USA.gov is the U.S. government's official web portal to all federal, state and local government web resources and services.